Regional Weather Roundup
Issued by NWS

Home | Current Version | Previous Version | Text Only | Print | Product List | Glossary On
Versions: 1 2 3 4 5 6 7 8 9 10 11 12 13 14 15 16 17 18 19 20 21 22 23 24 25 26 27 28 29 30 31 32 33 34 35 36 37 38 39 40 41 42 43 44 45 46 47 48 49 50
000
ASUS43 KMKX 201200
RWRWI

WISCONSIN REGIONAL WEATHER ROUNDUP
NATIONAL WEATHER SERVICE MILWAUKEE/SULLIVAN WI
700 AM CDT FRI OCT 20 2017

NOTE: "FAIR" INDICATES FEW OR NO CLOUDS BELOW 12,000 FEET WITH NO
SIGNIFICANT WEATHER AND/OR OBSTRUCTIONS TO VISIBILITY.

WIZ001-002-006>008-014>016-023>028-201300-
NORTHWEST WISCONSIN

CITY           SKY/WX    TMP DP  RH WIND       PRES   REMARKS
SUPERIOR ARPT  FAIR      39  37  91 CALM      29.86S
ASHLAND        FAIR      50  42  74 S5        29.89F
6HR MIN TEMP:  41; 6HR MAX TEMP:  55;

HAYWARD        FAIR      50  43  77 S6        29.92F
6HR MIN TEMP:  50; 6HR MAX TEMP:  57;

SIREN          FAIR      54  47  77 S8        29.89S
CUMBERLAND     FAIR      43  39  87 CALM      29.94S
RICE LAKE      FAIR      47  41  80 CALM      29.95F
CHETEK         FAIR      47  42  82 SE7       29.95S
LADYSMITH      FAIR      50  42  74 SE5       29.98F
EAU CLAIRE     NOT AVBL
MENOMONIE      FAIR      49  45  85 E7        29.96R
NEW RICHMOND   FAIR      51  46  83 SE5       29.92S
OSCEOLA        FAIR      51  47  87 SE7       29.93S
$$

WIZ003>005-009-010-017-018-201300-
NORTH CENTRAL WISCONSIN

CITY           SKY/WX    TMP DP  RH WIND       PRES   REMARKS
MANITOWISH WTR FAIR      45  42  88 S5        29.97S
ARBOR VITAE    FAIR      52  44  74 S8        29.99S
WOODRUFF       FAIR      52  44  74 S8        29.99S
RHINELANDER    FAIR      53  45  74 SW9       30.01S
6HR MIN TEMP:  53; 6HR MAX TEMP:  55;

EAGLE RIVER    FAIR      44  38  81 CALM      30.00S
LAND O LAKES   FAIR      47  39  72 SW3       30.00F
PHILLIPS       FAIR      50  43  77 S7        29.97F
TOMAHAWK       FAIR      37  33  89 CALM      30.01F
MEDFORD        FAIR      45  39  79 SE7       30.00S
MERRILL        FAIR      43  38  83 CALM      30.02S
$$

WIZ029-030-035-036-043>047-201300-
CENTRAL WISCONSIN

CITY           SKY/WX    TMP DP  RH WIND       PRES   REMARKS
WAUSAU         FAIR      47  40  76 SE3       30.02S
6HR MIN TEMP:  47; 6HR MAX TEMP:  53;

MOSINEE        CLEAR     46  43  87 S9        30.04S
MARSHFIELD     FAIR      47  41  80 CALM      30.01F
6HR MIN TEMP:  45; 6HR MAX TEMP:  48;

STEVENS POINT  FAIR      44  39  83 CALM      30.05R
WAUPACA        FAIR      45  41  87 CALM      30.06S
WAUTOMA        FAIR      37  36  96 CALM      30.07S
6HR MIN TEMP:  37; 6HR MAX TEMP:  42;

WISC RAPIDS    FAIR      51  44  77 S5        30.04S
6HR MIN TEMP:  50; 6HR MAX TEMP:  52;

CAMP DOUGLAS   NOT AVBL
$$

WIZ011>013-019>022-031-037>040-048>050-201300-
NORTHEAST WISCONSIN

CITY           SKY/WX    TMP DP  RH WIND       PRES   REMARKS
ANTIGO         FAIR      45  39  82 S7        30.04S
SHAWANO        FAIR      48  39  71 CALM      30.05S
OCONTO         FAIR      46  40  77 CALM      30.05F
STURGEON BAY   FAIR      52  39  61 S8        30.07S
6HR MIN TEMP:  50; 6HR MAX TEMP:  53;

GREEN BAY      FAIR      51  45  79 S7        30.06S
6HR MIN TEMP:  46; 6HR MAX TEMP:  51;

MANITOWOC      FAIR      48  35  60 S3        30.10R
6HR MIN TEMP:  47; 6HR MAX TEMP:  52;

APPLETON       CLEAR     50  39  66 S6        30.06S
CLINTONVILLE   FAIR      43  37  81 CALM      30.05F
OSHKOSH        FAIR      52  44  74 S12       30.07S
6HR MIN TEMP:  48; 6HR MAX TEMP:  53;

$$

WIZ032>034-041-042-053>061-201300-
SOUTHWEST WISCONSIN

CITY           SKY/WX    TMP DP  RH WIND       PRES   REMARKS
LA CROSSE      FAIR      56  50  80 SE8       30.02R
6HR MIN TEMP:  56; 6HR MAX TEMP:  61;

SPARTA         FAIR      47  45  93 CALM      30.03S
VIROQUA        FAIR      54  50  88 S8        30.05R
BOSCOBEL       FAIR      43  41  93 CALM      30.07R
6HR MIN TEMP:  41; 6HR MAX TEMP:  46;

PRAIRIE DU CHI FAIR      56  48  74 CALM      30.06R
PLATTEVILLE    FAIR      52  51  95 S10       30.09S
$$

WIZ056-057-062-063-064-067-068-201300-
SOUTH CENTRAL WISCONSIN

CITY           SKY/WX    TMP DP  RH WIND       PRES   REMARKS
REEDSBURG      FAIR      53  48  81 S6        30.06S
BARABOO/DELLS  FAIR      53  46  76 SW6       30.07R
LONE ROCK      NOT AVBL
MINERAL POINT  FAIR      52  50  93 S7        30.09S
MADISON        FAIR      51  46  83 S6        30.09S
6HR MIN TEMP:  51; 6HR MAX TEMP:  55;

MIDDLETON      FAIR      54  46  76 S7        30.10R
WATERTOWN      FAIR      51  47  86 CALM      30.11R
MONROE         FAIR      50  46  87 S9        30.10S
JANESVILLE     CLEAR     54  46  76 VRB3      30.11S
$$

WIZ051-052-058>065-066-070>072-201300-
SOUTHEAST WISCONSIN

CITY           SKY/WX    TMP DP  RH WIND       PRES   REMARKS
MILWAUKEE      FAIR      53  44  71 SW5       30.14R
6HR MIN TEMP:  53; 6HR MAX TEMP:  56;

WAUKESHA       CLEAR     50  43  76 S8        30.14S
MILWAUKEE/TIMM FAIR      45  36  70 CALM      30.13S
RACINE         FAIR      52  45  77 SW7       30.15S
6HR MIN TEMP:  51; 6HR MAX TEMP:  58;

BURLINGTON     FAIR      42  42 100 CALM      30.14R
KENOSHA        FAIR      48  43  82 SW3       30.14S
6HR MIN TEMP:  46; 6HR MAX TEMP:  53;

FOND DU LAC    FAIR      57  45  64 S7        30.09S
6HR MIN TEMP:  51; 6HR MAX TEMP:  59;

SHEBOYGAN      FAIR      45  39  79 S3        30.10S
6HR MIN TEMP:  41; 6HR MAX TEMP:  46;

WEST BEND      FAIR      45  37  76 CALM      30.11S
JUNEAU         FAIR      50  44  80 S5        30.11S
$$

LSZ147-162-201300-
LAKE SUPERIOR

STATION/POSITION TIME  TEMP    WIND        PRES    WAVE
                       AIR SEA DIR/SP/G            HT/PER
                 (UTC) (F)     (DEG/KT/KT) (MB)    (FT/S)
W MID LAKE BUOY  1050   55 52              1011.8F   1/ 4
DEVILS ISLAND    1100   57     190/  4/  5 1011.9F
SAXON HARBOR     1140   60     180/  8/ 13 1011.5F
$$

LMZ867-665-643>646-201300-
LAKE MICHIGAN

STATION/POSITION TIME  TEMP    WIND        PRES    WAVE
                       AIR SEA DIR/SP/G            HT/PER
                 (UTC) (F)     (DEG/KT/KT) (MB)    (FT/S)
S GREEN BAY BUOY 1030   56 58  180/ 12/ 14 1017.4S
N MID LAKE BUOY  1050   60 58  200/ 17/ 21 1018.5F   5/ 6
NORTHPORT PIER   1140   55     170/  5/ 10 1017.6F
KEWAUNEE LAKESHO 1130   53     200/ 10/ 13 1017.6F
SHEBOYGAN LAKESH 1100   55     190/  8/  9 1019.3R
PORT WASHINGTON  1140   51     240/  2/  3 1020.7S
MILWAUKEE LAKESH 1130   56     220/  7/  8   N/A
S MID LAKE BUOY  1050   61 61  190/ 14/ 16 1021.2R   2/ 3
KENOSHA   LAKESH 1100   54     180/  5/  7 1020.7
$$

TC  - TEMPERATURE IN CELSIUS
VSB - VISIBILITY IN STATUTE MILES
WCI - WIND CHILL INDEX
HX  - HEAT INDEX





USA.gov is the U.S. government's official web portal to all federal, state and local government web resources and services.